Preview of NWS' New Version of Forecast
This preview is not operational and should not be used for support decisions.

Regional Weather Roundup (RWR)

Issued by National Weather Service (NWS)

                            
000
ASUS46 KSEW 190310
RWRWA 

WASHINGTON REGIONAL WEATHER ROUNDUP
NATIONAL WEATHER SERVICE SEATTLE WA
800 PM PDT SUN AUG 18 2019

NOTE:"FAIR" INDICATES FEW OR NO CLOUDS BELOW 12,000 FEET WITH NO 
SIGNIFICANT WEATHER AND/OR OBSTRUCTIONS TO VISIBILITY.

WAZ507-509-555>559-190400-
SEATTLE, TACOMA, EVERETT, AND VICINITY
  
CITY           SKY/WX    TMP DP  RH WIND       PRES   REMARKS
EVERETT        CLEAR     63  53  70 N7        29.88R                  
BOEING FIELD   CLEAR     71  54  54 W5        29.84S                  
RENTON         CLEAR     72  57  59 SW8       29.84R                  
SEATAC AIRPORT PTCLDY    69  56  62 W6        29.86S                  
JBLM-MCCHORD   CLEAR     69  60  74 NW5       29.86S                  
PUYALLUP       FAIR      68  59  73 CALM      29.87R                  
BREMERTON      CLEAR     67  57  70 CALM      29.86S                  
JBLM-FT LEWIS  CLEAR     69  61  75 SW6       29.85S                  
TACOMA NARROWS PTCLDY    67  55  65 SW5       29.85F                  
$$
 
WAZ001-503-506-510-514-515-190400-
NORTH INTERIOR
  
CITY           SKY/WX    TMP DP  RH WIND       PRES   REMARKS
BELLINGHAM     CLEAR     66  52  60 S9        29.83F                  
FRIDAY HARBOR  CLEAR     61  51  70 VRB7      29.84S                  
EASTSOUND      CLEAR     66  52  59 S10       29.81S                  
PORT ANGELES   CLEAR     60  53  77 W10       29.88S                  
EDIZ HOOK      FAIR      60  54  79 W16G25    29.87S                  
PORT TOWNSEND  FAIR      64  52  63 NW6       29.85F                  
NAS WHIDBEY    PTCLDY    62  52  69 SW10      29.90S                  
ARLINGTON      CLEAR     64  54  69 NW10      29.87R                  
BURLINGTON     CLEAR     64  54  68 S3        29.86S                  
$$
 
WAZ020-022-039-040-504-511-512-190400-
SOUTHWEST INTERIOR
  
CITY           SKY/WX    TMP DP  RH WIND       PRES   REMARKS
SHELTON        CLEAR     69  55  60 SW12      29.83S                  
OLYMPIA        CLEAR     68  54  60 SW7       29.86S                  
CHEHALIS       FAIR      68  59  73 W5        29.87S                  
KELSO          CLEAR     68  57  68 W8        29.87R                  
VANCOUVER      CLEAR     71  55  56 N7        29.83S                  
SCAPPOOSE, OR  CLEAR     70  56  61 NW8       29.83S                  
PORTLAND, OR   CLEAR     72  56  57 NW8       29.84R                  
$$
 
WAZ021-516-517-190400-
WASHINGTON COAST
  
CITY           SKY/WX    TMP DP  RH WIND       PRES   REMARKS
FORKS          CLOUDY    62  53  72 NW3       29.89F                  
HOQUIAM        CLEAR     63  58  83 W10       29.89S                  
ASTORIA, OR    CLEAR     63  56  78 NW8       29.89S                  
$$
 
WAZ019-023-024-040-567>569-190400-
CASCADE MOUNTAINS AND COLUMBIA GORGE
  
CITY           SKY/WX    TMP DP  RH WIND       PRES   REMARKS
STAMPEDE PASS  CLEAR     57  50  77 VRB6      29.94R                  
TROUTDALE, OR  CLEAR     73  57  57 VRB3      29.83R                  
HOOD RIVER, OR CLEAR     72  52  49 SW3       29.78S                  
THE DALLES, OR CLEAR     76  52  43 NW9       29.72R                  
$$

WAZ026-027-041>044-520-521-190400-
EAST SLOPES
  
CITY           SKY/WX    TMP DP  RH WIND       PRES   REMARKS
OMAK           CLEAR     83  43  24 S15       29.67S                  
WENATCHEE      CLEAR     79  51  37 E6        29.69R                  
ELLENSBURG     CLEAR     76  49  38 NW25G33   29.75R                  
YAKIMA         CLEAR     77  55  46 SW5       29.71R                  
SUNNYSIDE ARPT CLEAR     77  65  67 N3        29.68S                  
YAKIMA TC      FAIR      82  47  29 NW6       29.71R                  
$$

WAZ028-034-035-190400-
COLUMBIA BASIN
  
CITY           SKY/WX    TMP DP  RH WIND       PRES   REMARKS
EPHRATA        CLEAR     78  48  34 S5        29.69F                  
MOSES LAKE     CLEAR     83  48  29 S6        29.70F                  
PASCO          CLEAR     86  51  29 SE7       29.67S                  
RICHLAND ARPT  CLEAR     83  56  39 E5        29.66                   
HERMISTON, OR  CLEAR     81  48  31 SW5       29.68S                  
$$

WAZ036>038-190400-
NORTHEAST WASHINGTON
  
CITY           SKY/WX    TMP DP  RH WIND       PRES   REMARKS
SPOKANE GEIGER PTCLDY    79  36  21 S6        29.76F                  
SPOKANE FELTS  CLEAR     76  40  27 CALM      29.75S                  
FAIRCHILD AFB  CLEAR     76  35  23 SW6       29.77S                  
COEURDALENE,ID CLEAR     72  46  39 SW3       29.77S                  
DEER PARK      CLEAR     71  49  45 S3        29.76S                  
$$

WAZ029>033-190400-
SOUTHEAST WASHINGTON
  
CITY           SKY/WX    TMP DP  RH WIND       PRES   REMARKS
PULLMAN        CLEAR     76  31  19 W5        29.80S                  
LEWISTON, ID   CLEAR     86  32  14 VRB6      29.71R                  
WALLA WALLA    CLEAR     81  43  26 SW3       29.72S                  
PENDLETON, OR  CLEAR     81  39  22 W3        29.73S                  
$$